SL-14 R/B

Satellite information

Favourite Embed

Satellite Type and Status

ROCKET BODYIN ORBIT

Key statistics

Satellite SL-14 R/B at a glance.

Uptime

11813

Days in orbit

Revolutions

≈ 12.5

Per day

Orbit

LEO

Low Earth Orbit

Inclination

82.6

Latest

Satellite identification and parameters

Extended collection of information and parameters for SL-14 R/B.

Object identification

Identified? True

Debris? False

Object name: SL-14 R/B

International designator: 1993-038G

Object number (NORAD): 22693

Object ID (CCSDS): 22693

Country: COMMONWEALTH OF INDEPENDENT STATES (CIS)

Current information (Y/N): Y

RCS size: LARGE

Orbital parameters

Period: 114.756 minutes

Inclination: 82.5827 deg

SMA: 7822.484 km

Apoapsis: 1480.833 km

Periapsis: 1407.865 km

RAAN: 136.3351 deg

Eccentricy: 0.00466404

Argument of periapsis: 124.563 deg

Mean anomaly: 354.748 deg

Mean motion: 12.54832469 rev/day

Mean motion (dot): 0.00000006 rev/day2

B* drag term: -0.000030740682 1/REarth

Two-line elements (TLE)

Creation date: Oct. 27, 2025, 2:46 a.m.

Reference frame: TEME

Reference center: EARTH

Epoch: Oct. 26, 2025, 10:31 p.m. UTC

TLE line 0: 0 SL-14 R/B

TLE line 1: 1 22693U 93038G 25299.93852025 .00000006 00000-0 -30741-4 0 9992

TLE line 2: 2 22693 82.5827 136.3351 0046640 124.5630 354.7480 12.54832469481760

Live tracking on map

Real-time ground track for satellite SL-14 R/B.

In-orbit conjunctions

A list of the most updated potential collisions computed for object SL-14 R/B.

Target Orbit TCA Probability of collision Miss distance Type
FENGYUN 1C DEB SSO 2025-04-16 20:43:37 0.0001477495 89.0 (m) DEBRIS

Associated space launch

Second generation store-dump military communications satellites

SL-14 R/B was lifted into orbit during the mission ‘Tsiklon-3 | Strela-3 95 to 100’, on board a Tsiklon-3 space rocket.

The launch took place on June 24, 1993, 4:12 a.m. from 32/1.

For more information about the launch, click the button.

Launch to space Tsiklon-3 | Strela-3 95 to 100
Tsiklon-3 | Strela-3 95 to 100

Agency: N/A

Status: Launch Successful

Launch date: June 24, 1993, 4:12 a.m. UTC

Rocket: Tsiklon-3

Launch pad: 32/1

Location: Plesetsk Cosmodrome, Russian Federation

...

Latest news about this satellite

There are no fresh news available about this satellite. Check back as we update our databases every day.


Newsletter sign-up

Weekly statistics, charts and insights to help you stay on top of the space industry.